[[{"header":{"parameterUnit":"m.s-1","parameterCategory":1,"la1":30.2991,"la2":30.254,"lo1":-89.0895,"lo2":-89.0444,"dy":0.0017,"dx":0.0017,"nx":28,"ny":28,"refTime":"2023-10-12T09:00:00:Z","depth":0,"parameterNumber":2,"parameterNumberName":"U-component_of_WINDS"},"data":[0,0,0,0,0,0,0,0,0,0,0,0,0,0,0,0,0,0,0,0,0,0,0,0,0,0,0,0,0,0,0,0,0,0,0,0,0,0,0,0,0,0,0,0,0,0,0,0,0,0,0,0,0,0,0,0,0,0,0.0695,0.0695,0,0.0752,0.0753,0.0753,0.0745,0.0744,0.0743,0.0742,0.0804,0.0806,0.0809,0,0,0,0,0,0,0,0,0,0,0,0,0,0.058,0.0582,0.0694,0.0695,0.0696,0.0752,0.0753,0.0753,0.0745,0.0744,0.0743,0.0742,0.0803,0.0806,0.0809,0,0,0,0,0,0,0,0,0,0,0,0,0,0.0633,0.0582,0.0694,0.0699,0.0699,0.0752,0.0753,0.0754,0.0745,0.0744,0.0743,0.0741,0.0802,0.0806,0.081,0.0862,0,0,0.0821,0.0823,0,0,0,0,0,0,0,0,0.063,0.0637,0.0697,0.0698,0.0699,0.074,0.0735,0.079,0.0746,0.0728,0.0742,0.0741,0.0784,0.0789,0.0803,0.0865,0.0868,0.0822,0.0824,0.0826,0.0827,0,0,0,0,0,0,0,0.0626,0.0634,0.0717,0.0698,0.0699,0.0698,0.0704,0.0745,0.0764,0.073,0.0729,0.0736,0.0784,0.08,0.0805,0.0869,0.0822,0.0825,0.0827,0.0829,0.0975,0.0976,0,0,0,0,0,0,0.0621,0.0631,0.0715,0.0719,0.066,0.0701,0.0708,0.0728,0.0763,0.0767,0.0737,0.0735,0.0794,0.08,0.0807,0.0869,0.0826,0.0829,0.0831,0.0973,0.0975,0.0977,0,0,0,0,0,0,0.0618,0.0628,0.0713,0.0675,0.0686,0.0705,0.0728,0.073,0.0745,0.0769,0.0772,0.0749,0.0793,0.0801,0.0848,0.0871,0.0831,0.0834,0.0971,0.0974,0.0976,0.0996,0,0,0,0,0,0,0.0615,0.0628,0.0647,0.0675,0.0688,0.0753,0.0729,0.0732,0.0752,0.075,0.0781,0.0785,0.0792,0.0842,0.0852,0.0876,0.0837,0.0969,0.0973,0.0975,0.0993,0.0999,0.1003,0,0,0,0,0,0.0611,0.0652,0.0648,0.0659,0.0713,0.0754,0.0761,0.0769,0.0754,0.0774,0.0788,0.0784,0.0867,0.0847,0.0858,0.0884,0.0968,0.0972,0.0975,0.0991,0.0998,0.1003,0,0,0,0,0,0,0.0628,0.0656,0.0652,0.0703,0.0726,0.0753,0.0779,0.0776,0.0804,0.0801,0.081,0.0817,0.0864,0.0879,0.0855,0.0935,0.0916,0.0922,0.0924,0.0931,0.0935,0.0931,0.0841,0,0,0,0,0,0.0637,0.0667,0.0691,0.0733,0.0745,0.076,0.0778,0.0781,0.0806,0.0816,0.0834,0.0859,0.0891,0.0912,0.0942,0.0995,0.1001,0.1018,0.1023,0.1027,0.1032,0.106,0.1067,0.0989,0.0989,0.0989,0,0,0.0657,0.0676,0.0695,0.0737,0.0755,0.0787,0.0768,0.0803,0.0826,0.0822,0.0866,0.088,0.0908,0.0958,0.0981,0.0971,0.1055,0.1032,0.1035,0.1038,0.1064,0.1072,0.1078,0.0991,0.0991,0.099,0,0,0.0709,0.0727,0.0764,0.0782,0.0809,0.0818,0.0827,0.0854,0.0863,0.0907,0.0904,0.0932,0.0987,0.1007,0.1024,0.1082,0.1078,0.1092,0.1118,0.1145,0.1151,0.1157,0.1176,0.1183,0.1096,0.1097,0.1097,0,0.0731,0.0778,0.0784,0.0818,0.0836,0.0832,0.0869,0.0887,0.0923,0.0936,0.0925,0.0992,0.1011,0.1064,0.1078,0.1092,0.1102,0.1088,0.115,0.1155,0.116,0.1179,0.1187,0.1098,0.1098,0.1098,0.1097,0,0.0803,0.0835,0.0862,0.0895,0.0916,0.0952,0.0963,0.0984,0.0985,0.0996,0.104,0.1062,0.1097,0.111,0.1112,0.1163,0.1156,0.1147,0.1128,0.1169,0.1187,0.1194,0.11,0.1099,0.1099,0.1099,0,0,0.0868,0.0903,0.0912,0.0927,0.0955,0.0981,0.1016,0.1048,0.1066,0.1091,0.112,0.1166,0.1157,0.1176,0.1181,0.1204,0.1247,0.1192,0.1193,0.1201,0.1304,0.131,0.1318,0.1245,0.1246,0.1247,0.1301,0,0.0923,0.0984,0.0989,0.1044,0.1074,0.1069,0.11,0.1121,0.1131,0.1158,0.117,0.1202,0.1188,0.12,0.1223,0.1237,0.1268,0.1233,0.1272,0.1274,0.1265,0.1327,0.1334,0.1384,0.1308,0.1309,0.131,0,0.0995,0.102,0.1077,0.11,0.1113,0.114,0.1169,0.1195,0.1219,0.1225,0.1245,0.1246,0.1282,0.1261,0.1311,0.1287,0.1303,0.1312,0.1315,0.1318,0.1294,0.1332,0.14,0.1407,0.1321,0.132,0.132,0,0.1035,0.1084,0.1124,0.1137,0.1165,0.1184,0.1197,0.1219,0.1237,0.1263,0.1275,0.1305,0.1321,0.1344,0.1353,0.1337,0.1402,0.1382,0.1408,0.1408,0.1422,0.1421,0.1492,0.1433,0.1433,0.1433,0.1433,0,0.1095,0.1131,0.1142,0.1167,0.1206,0.1212,0.125,0.1262,0.1282,0.1309,0.1307,0.1333,0.1343,0.137,0.1377,0.1416,0.1424,0.143,0.1431,0.143,0.1429,0.144,0.1437,0.1435,0.1434,0.1434,0.1434,0,0.1147,0.1157,0.12,0.1222,0.1229,0.1257,0.1276,0.13,0.1309,0.1343,0.1352,0.1367,0.1399,0.1409,0.1449,0.1453,0.1499,0.1498,0.149,0.149,0.1515,0.1513,0.1597,0.1607,0.1542,0.1542,0.1543,0,0.1185,0.1211,0.1236,0.1253,0.1266,0.1295,0.1313,0.1319,0.1338,0.1366,0.1387,0.1418,0.1443,0.1494,0.1509,0.1538,0.1537,0.1565,0.1542,0.1539,0.1537,0.1535,0.1537,0.1569,0.157,0.157,0.1571,0,0.125,0.1253,0.1278,0.1305,0.1327,0.1349,0.137,0.1384,0.1394,0.1415,0.1447,0.1466,0.1505,0.1536,0.1565,0.1579,0.1576,0.1577,0.1585,0.1583,0.1578,0.158,0.1501,0.1576,0.1575,0.1575,0.1574,0.1574,0.1295,0.1318,0.1338,0.1367,0.1383,0.1402,0.1425,0.1437,0.1463,0.1494,0.1496,0.153,0.1552,0.1591,0.1606,0.1633,0.1625,0.1636,0.1639,0.1641,0.1643,0.1573,0.1639,0.1638,0.1638,0.1638,0.1638,0,0.1359,0.1372,0.1398,0.1426,0.1448,0.1443,0.1465,0.1484,0.1514,0.1534,0.1558,0.1594,0.1623,0.164,0.1669,0.1687,0.1686,0.1694,0.1693,0.1696,0.1648,0.1639,0.1694,0.1694,0.1694,0.1694,0.1694,0.1694,0.1395,0.1433,0.1438,0.1483,0.1496,0.1528,0.1541,0.1559,0.1575,0.1614,0.1638,0.1648,0.1667,0.1697,0.1723,0.1727,0.1738,0.1747,0.175,0.1705,0.17,0.1694,0.1685,0.1749,0.1749,0.1795,0.1796,0.1796]},{"header":{"parameterUnit":"m.s-1","parameterCategory":1,"la1":30.2991,"la2":30.254,"lo1":-89.0895,"lo2":-89.0444,"dy":0.0017,"dx":0.0017,"nx":28,"ny":28,"refTime":"2023-10-12T09:00:00:Z","depth":0,"parameterNumber":3,"parameterNumberName":"V-component_of_WINDS"},"data":[0,0,0,0,0,0,0,0,0,0,0,0,0,0,0,0,0,0,0,0,0,0,0,0,0,0,0,0,0,0,0,0,0,0,0,0,0,0,0,0,0,0,0,0,0,0,0,0,0,0,0,0,0,0,0,0,0,0,1.7165,1.7163,0,1.7023,1.7022,1.702,1.6934,1.6934,1.6933,1.6933,1.6779,1.6776,1.6772,0,0,0,0,0,0,0,0,0,0,0,0,0,1.7352,1.7349,1.7165,1.7163,1.7162,1.7024,1.7022,1.702,1.6934,1.6934,1.6933,1.6933,1.6781,1.6776,1.6772,0,0,0,0,0,0,0,0,0,0,0,0,0,1.7247,1.7348,1.7165,1.7102,1.7095,1.7024,1.7022,1.7019,1.6934,1.6934,1.6933,1.6932,1.6782,1.6777,1.6771,1.6749,0,0,1.6754,1.6752,0,0,0,0,0,0,0,0,1.7253,1.724,1.7113,1.7107,1.7099,1.6996,1.7031,1.6928,1.6934,1.6995,1.6933,1.6932,1.6851,1.684,1.6815,1.6742,1.6735,1.6754,1.675,1.6748,1.6746,0,0,0,0,0,0,0,1.726,1.7245,1.7109,1.7112,1.7103,1.7078,1.7063,1.7011,1.6928,1.699,1.6983,1.6968,1.6847,1.682,1.681,1.6733,1.6754,1.6749,1.6745,1.6743,1.663,1.6631,0,0,0,0,0,0,1.7279,1.7252,1.7113,1.7105,1.7176,1.7075,1.7058,1.7029,1.6928,1.6913,1.6969,1.6965,1.683,1.6817,1.6805,1.6769,1.6748,1.6743,1.6739,1.663,1.663,1.6631,0,0,0,0,0,0,1.7283,1.7267,1.7119,1.7176,1.7156,1.7073,1.7041,1.7027,1.7,1.6913,1.6896,1.6957,1.6829,1.6812,1.6763,1.6763,1.674,1.6735,1.663,1.663,1.6631,1.67,0,0,0,0,0,0,1.7289,1.7269,1.7262,1.7177,1.7153,1.7083,1.7042,1.7025,1.6992,1.6985,1.6897,1.6882,1.6827,1.6772,1.6758,1.6755,1.6731,1.6629,1.663,1.663,1.6698,1.6703,1.6708,0,0,0,0,0,1.7296,1.7286,1.7262,1.7246,1.7143,1.7083,1.7069,1.7008,1.6992,1.6982,1.6926,1.6885,1.6766,1.6768,1.6751,1.6746,1.6629,1.663,1.663,1.6695,1.6702,1.6708,0,0,0,0,0,0,1.7371,1.7274,1.7246,1.721,1.7156,1.7069,1.7055,1.7018,1.6965,1.6961,1.6885,1.6866,1.6823,1.678,1.6784,1.6717,1.6692,1.669,1.6747,1.6753,1.6758,1.6768,1.6726,0,0,0,0,0,1.7384,1.7347,1.7263,1.7238,1.7213,1.7139,1.7111,1.7069,1.7008,1.6984,1.6924,1.6865,1.6813,1.6781,1.6729,1.6691,1.6669,1.668,1.6685,1.6689,1.6687,1.6661,1.6663,1.6633,1.6633,1.6633,0,0,1.7409,1.7352,1.7332,1.7252,1.7205,1.7164,1.712,1.708,1.7048,1.6977,1.6927,1.6881,1.6809,1.6765,1.6742,1.6727,1.6691,1.669,1.6695,1.669,1.6662,1.6665,1.6667,1.6634,1.6634,1.6634,0,0,1.7434,1.7388,1.7362,1.7316,1.7246,1.7197,1.7191,1.711,1.7077,1.7026,1.6971,1.6931,1.6845,1.6795,1.6759,1.6764,1.6723,1.6749,1.6775,1.675,1.6752,1.6754,1.6752,1.6753,1.6747,1.6748,1.6748,0,1.7473,1.7413,1.7352,1.7314,1.7279,1.7216,1.7186,1.7144,1.706,1.7036,1.7021,1.691,1.6858,1.68,1.6801,1.6774,1.6762,1.6758,1.6757,1.6758,1.6759,1.6757,1.6757,1.6751,1.6751,1.675,1.675,0,1.7463,1.7422,1.7408,1.7331,1.7294,1.7261,1.7192,1.7162,1.7123,1.7074,1.7021,1.6956,1.6889,1.6872,1.6833,1.6807,1.68,1.6772,1.6745,1.6766,1.6763,1.6762,1.6756,1.6755,1.6754,1.6753,0,0,1.753,1.742,1.7416,1.7379,1.7297,1.7262,1.7225,1.7162,1.7136,1.708,1.7044,1.6972,1.6946,1.6904,1.6859,1.6837,1.6841,1.6811,1.6808,1.6817,1.6805,1.6825,1.6826,1.6815,1.6814,1.6814,1.6811,0,1.7541,1.7473,1.7417,1.7369,1.7328,1.7267,1.7233,1.7177,1.7131,1.7087,1.7034,1.6984,1.6954,1.6928,1.6905,1.6846,1.6838,1.6846,1.6777,1.6775,1.6795,1.6824,1.6845,1.6845,1.6809,1.6809,1.6809,0,1.7544,1.7493,1.7441,1.7362,1.7343,1.7314,1.725,1.7211,1.7145,1.7112,1.7066,1.7019,1.6972,1.6951,1.6884,1.6891,1.6859,1.6826,1.6824,1.6814,1.6792,1.6812,1.6844,1.6844,1.6807,1.6807,1.6807,0,1.7595,1.7513,1.7471,1.7441,1.7349,1.7329,1.7289,1.7223,1.7188,1.7132,1.7107,1.7045,1.7011,1.6962,1.6898,1.6889,1.6836,1.681,1.6804,1.6806,1.6794,1.6795,1.6819,1.6778,1.6778,1.6778,1.6778,0,1.7611,1.7581,1.7492,1.7466,1.743,1.7364,1.7328,1.7282,1.7224,1.7185,1.7128,1.7092,1.7011,1.6964,1.6913,1.6864,1.6849,1.6818,1.6805,1.6822,1.6826,1.6799,1.6796,1.6778,1.6778,1.6778,1.6778,0,1.7661,1.7601,1.755,1.7467,1.7445,1.7422,1.7349,1.7319,1.727,1.7221,1.7206,1.7127,1.7069,1.7001,1.692,1.6885,1.6839,1.682,1.6862,1.6854,1.6851,1.6851,1.6856,1.6852,1.6817,1.6817,1.6817,0,1.7674,1.765,1.7565,1.7536,1.7499,1.7453,1.7417,1.7351,1.7315,1.7238,1.7217,1.7155,1.7102,1.7012,1.6945,1.6881,1.6859,1.6865,1.6849,1.6867,1.6856,1.6857,1.6853,1.6869,1.687,1.687,1.6871,0,1.7703,1.7674,1.7627,1.7569,1.7528,1.7478,1.7426,1.7405,1.7326,1.7289,1.7231,1.719,1.7108,1.7046,1.6974,1.6929,1.6885,1.6877,1.6872,1.6888,1.6913,1.6897,1.6872,1.6877,1.6876,1.6876,1.6875,1.6875,1.7733,1.7708,1.7644,1.7592,1.7546,1.7498,1.7466,1.7413,1.7364,1.7294,1.7257,1.7199,1.713,1.7031,1.6987,1.6937,1.6922,1.6916,1.6913,1.6912,1.6916,1.6923,1.6924,1.6924,1.6923,1.6923,1.6923,0,1.7756,1.7712,1.7666,1.7595,1.7554,1.7521,1.746,1.7427,1.7377,1.7319,1.7268,1.7199,1.7139,1.7068,1.7002,1.6976,1.6954,1.696,1.696,1.695,1.6934,1.6944,1.6979,1.6979,1.6979,1.6979,1.6979,1.6979,1.7764,1.7719,1.7683,1.7613,1.7568,1.7513,1.7481,1.7435,1.7388,1.7315,1.7266,1.7221,1.7156,1.7085,1.7026,1.7007,1.6984,1.6996,1.697,1.6956,1.6951,1.6947,1.6956,1.6992,1.6992,1.6989,1.6989,1.6989]}]]